Year,Month,Day,Hour,Minute,Value (Times are PST for temperature in C)
2013,05,07,00,00,17.20
2013,05,07,00,01,17.20
2013,05,07,00,02,17.20
2013,05,07,00,03,17.20
2013,05,07,00,04,17.20
2013,05,07,00,05,17.30
2013,05,07,00,06,17.30
2013,05,07,00,07,17.30
2013,05,07,00,08,17.30
2013,05,07,00,09,17.20
2013,05,07,00,10,17.20
2013,05,07,00,11,17.20
2013,05,07,00,12,17.20
2013,05,07,00,13,17.20
2013,05,07,00,14,17.20
2013,05,07,00,15,17.20
2013,05,07,00,16,17.20
2013,05,07,00,17,17.30
2013,05,07,00,18,17.40
2013,05,07,00,19,17.40
2013,05,07,00,20,17.50
2013,05,07,00,21,17.60
2013,05,07,00,22,17.70
2013,05,07,00,23,17.80
2013,05,07,00,24,17.90
2013,05,07,00,25,18.00
2013,05,07,00,26,18.10
2013,05,07,00,27,18.10
2013,05,07,00,28,18.20
2013,05,07,00,29,18.30
2013,05,07,00,30,18.30
2013,05,07,00,31,18.40
2013,05,07,00,32,18.40
2013,05,07,00,33,18.40
2013,05,07,00,34,18.50
2013,05,07,00,35,18.50
2013,05,07,00,36,18.50
2013,05,07,00,37,18.40
2013,05,07,00,38,18.40
2013,05,07,00,39,18.40
2013,05,07,00,40,18.40
2013,05,07,00,41,18.40
2013,05,07,00,42,18.40
2013,05,07,00,43,18.30
2013,05,07,00,44,18.30
2013,05,07,00,45,18.30
2013,05,07,00,46,18.30
2013,05,07,00,47,18.30
2013,05,07,00,48,18.20
2013,05,07,00,49,18.10
2013,05,07,00,50,18.00
2013,05,07,00,51,17.90
2013,05,07,00,52,17.70
2013,05,07,00,53,17.50
2013,05,07,00,54,17.30
2013,05,07,00,55,17.10
2013,05,07,00,56,16.90
2013,05,07,00,57,16.80
2013,05,07,00,58,16.70
2013,05,07,00,59,16.60
2013,05,07,01,00,16.50
2013,05,07,01,01,16.40
2013,05,07,01,02,16.30
2013,05,07,01,03,16.20
2013,05,07,01,04,16.20
2013,05,07,01,05,16.10
2013,05,07,01,06,16.00
2013,05,07,01,07,16.00
2013,05,07,01,08,15.90
2013,05,07,01,09,15.90
2013,05,07,01,10,15.80
2013,05,07,01,11,15.80
2013,05,07,01,12,15.70
2013,05,07,01,13,15.70
2013,05,07,01,14,15.60
2013,05,07,01,15,15.50
2013,05,07,01,16,15.30
2013,05,07,01,17,15.20
2013,05,07,01,18,15.10
2013,05,07,01,19,14.90
2013,05,07,01,20,14.80
2013,05,07,01,21,14.70
2013,05,07,01,22,14.50
2013,05,07,01,23,14.40
2013,05,07,01,24,14.30
2013,05,07,01,25,14.20
2013,05,07,01,26,14.10
2013,05,07,01,27,14.00
2013,05,07,01,28,13.90
2013,05,07,01,29,13.80
2013,05,07,01,30,13.80
2013,05,07,01,31,13.70
2013,05,07,01,32,13.70
2013,05,07,01,33,13.70
2013,05,07,01,34,13.60
2013,05,07,01,35,13.60
2013,05,07,01,36,13.60
2013,05,07,01,37,13.60
2013,05,07,01,38,13.50
2013,05,07,01,39,13.50
2013,05,07,01,40,13.50
2013,05,07,01,41,13.40
2013,05,07,01,42,13.40
2013,05,07,01,43,13.40
2013,05,07,01,44,13.40
2013,05,07,01,45,13.40
2013,05,07,01,46,13.40
2013,05,07,01,47,13.40
2013,05,07,01,48,13.40
2013,05,07,01,49,13.30
2013,05,07,01,50,13.30
2013,05,07,01,51,13.30
2013,05,07,01,52,13.30
2013,05,07,01,53,13.30
2013,05,07,01,54,13.30
2013,05,07,01,55,13.30
2013,05,07,01,56,13.30
2013,05,07,01,57,13.40
2013,05,07,01,58,13.40
2013,05,07,01,59,13.40
2013,05,07,02,00,13.40
2013,05,07,02,01,13.50
2013,05,07,02,02,13.50
2013,05,07,02,03,13.50
2013,05,07,02,04,13.60
2013,05,07,02,05,13.60
2013,05,07,02,06,13.60
2013,05,07,02,07,13.70
2013,05,07,02,08,13.70
2013,05,07,02,09,13.70
2013,05,07,02,10,13.70
2013,05,07,02,11,13.70
2013,05,07,02,12,13.70
2013,05,07,02,13,13.70
2013,05,07,02,14,13.70
2013,05,07,02,15,13.70
2013,05,07,02,16,13.80
2013,05,07,02,17,13.80
2013,05,07,02,18,13.80
2013,05,07,02,19,13.90
2013,05,07,02,20,13.90
2013,05,07,02,21,13.90
2013,05,07,02,22,13.90
2013,05,07,02,23,14.00
2013,05,07,02,24,14.00
2013,05,07,02,25,14.00
2013,05,07,02,26,14.00
2013,05,07,02,27,14.10
2013,05,07,02,28,14.10
2013,05,07,02,29,14.10
2013,05,07,02,30,14.10
2013,05,07,02,31,14.20
2013,05,07,02,32,14.20
2013,05,07,02,33,14.20
2013,05,07,02,34,14.30
2013,05,07,02,35,14.30
2013,05,07,02,36,14.30
2013,05,07,02,37,14.40
2013,05,07,02,38,14.40
2013,05,07,02,39,14.40
2013,05,07,02,40,14.40
2013,05,07,02,41,14.50
2013,05,07,02,42,14.50
2013,05,07,02,43,14.60
2013,05,07,02,44,14.60
2013,05,07,02,45,14.70
2013,05,07,02,46,14.70
2013,05,07,02,47,14.80
2013,05,07,02,48,14.80
2013,05,07,02,49,14.90
2013,05,07,02,50,14.90
2013,05,07,02,51,15.00
2013,05,07,02,52,15.10
2013,05,07,02,53,15.10
2013,05,07,02,54,15.20
2013,05,07,02,55,15.20
2013,05,07,02,56,15.30
2013,05,07,02,57,15.30
2013,05,07,02,58,15.30
2013,05,07,02,59,15.30
2013,05,07,03,00,15.30
2013,05,07,03,01,15.30
2013,05,07,03,02,15.30
2013,05,07,03,03,15.40
2013,05,07,03,04,15.40
2013,05,07,03,05,15.40
2013,05,07,03,06,15.40
2013,05,07,03,07,15.40
2013,05,07,03,08,15.40
2013,05,07,03,09,15.40
2013,05,07,03,10,15.40
2013,05,07,03,11,15.40
2013,05,07,03,12,15.30
2013,05,07,03,13,15.30
2013,05,07,03,14,15.20
2013,05,07,03,15,15.20
2013,05,07,03,16,15.10
2013,05,07,03,17,15.10
2013,05,07,03,18,15.00
2013,05,07,03,19,15.00
2013,05,07,03,20,14.90
2013,05,07,03,21,14.90
2013,05,07,03,22,14.80
2013,05,07,03,23,14.80
2013,05,07,03,24,14.80
2013,05,07,03,25,14.70
2013,05,07,03,26,14.70
2013,05,07,03,27,14.70
2013,05,07,03,28,14.70
2013,05,07,03,29,14.60
2013,05,07,03,30,14.60
2013,05,07,03,31,14.60
2013,05,07,03,32,14.60
2013,05,07,03,33,14.50
2013,05,07,03,34,14.50
2013,05,07,03,35,14.50
2013,05,07,03,36,14.50
2013,05,07,03,37,14.40
2013,05,07,03,38,14.40
2013,05,07,03,39,14.40
2013,05,07,03,40,14.40
2013,05,07,03,41,14.40
2013,05,07,03,42,14.40
2013,05,07,03,43,14.30
2013,05,07,03,44,14.30
2013,05,07,03,45,14.20
2013,05,07,03,46,14.20
2013,05,07,03,47,14.10
2013,05,07,03,48,14.10
2013,05,07,03,49,14.00
2013,05,07,03,50,13.90
2013,05,07,03,51,13.80
2013,05,07,03,52,13.70
2013,05,07,03,53,13.60
2013,05,07,03,54,13.50
2013,05,07,03,55,13.40
2013,05,07,03,56,13.30
2013,05,07,03,57,13.20
2013,05,07,03,58,13.10
2013,05,07,03,59,13.00
2013,05,07,04,00,12.90
2013,05,07,04,01,12.80
2013,05,07,04,02,12.70
2013,05,07,04,03,12.60
2013,05,07,04,04,12.50
2013,05,07,04,05,12.40
2013,05,07,04,06,12.30
2013,05,07,04,07,12.30
2013,05,07,04,08,12.20
2013,05,07,04,09,12.20
2013,05,07,04,10,12.10
2013,05,07,04,11,12.10
2013,05,07,04,12,12.10
2013,05,07,04,13,12.00
2013,05,07,04,14,12.00
2013,05,07,04,15,11.90
2013,05,07,04,16,11.90
2013,05,07,04,17,11.90
2013,05,07,04,18,11.80
2013,05,07,04,19,11.80
2013,05,07,04,20,11.80
2013,05,07,04,21,11.80
2013,05,07,04,22,11.80
2013,05,07,04,23,11.70
2013,05,07,04,24,11.70
2013,05,07,04,25,11.70
2013,05,07,04,26,11.70
2013,05,07,04,27,11.70
2013,05,07,04,28,11.60
2013,05,07,04,29,11.60
2013,05,07,04,30,11.60
2013,05,07,04,31,11.60
2013,05,07,04,32,11.50
2013,05,07,04,33,11.50
2013,05,07,04,34,11.50
2013,05,07,04,35,11.40
2013,05,07,04,36,11.40
2013,05,07,04,37,11.40
2013,05,07,04,38,11.40
2013,05,07,04,39,11.40
2013,05,07,04,40,11.30
2013,05,07,04,41,11.30
2013,05,07,04,42,11.30
2013,05,07,04,43,11.30
2013,05,07,04,44,11.30
2013,05,07,04,45,11.20
2013,05,07,04,46,11.20
2013,05,07,04,47,11.20
2013,05,07,04,48,11.20
2013,05,07,04,49,11.10
2013,05,07,04,50,11.10
2013,05,07,04,51,11.10
2013,05,07,04,52,11.10
2013,05,07,04,53,11.10
2013,05,07,04,54,11.00
2013,05,07,04,55,11.00
2013,05,07,04,56,11.00
2013,05,07,04,57,11.00
2013,05,07,04,58,10.90
2013,05,07,04,59,10.90
2013,05,07,05,00,10.90
2013,05,07,05,01,10.90
2013,05,07,05,02,10.90
2013,05,07,05,03,10.90
2013,05,07,05,04,10.80
2013,05,07,05,05,10.80
2013,05,07,05,06,10.80
2013,05,07,05,07,10.80
2013,05,07,05,08,10.80
2013,05,07,05,09,10.80
2013,05,07,05,10,10.70
2013,05,07,05,11,10.70
2013,05,07,05,12,10.70
2013,05,07,05,13,10.70
2013,05,07,05,14,10.70
2013,05,07,05,15,10.70
2013,05,07,05,16,10.70
2013,05,07,05,17,10.60
2013,05,07,05,18,10.60
2013,05,07,05,19,10.60
2013,05,07,05,20,10.60
2013,05,07,05,21,10.60
2013,05,07,05,22,10.60
2013,05,07,05,23,10.50
2013,05,07,05,24,10.50
2013,05,07,05,25,10.50
2013,05,07,05,26,10.50
2013,05,07,05,27,10.50
2013,05,07,05,28,10.40
2013,05,07,05,29,10.40
2013,05,07,05,30,10.40
2013,05,07,05,31,10.40
2013,05,07,05,32,10.40
2013,05,07,05,33,10.40
2013,05,07,05,34,10.40
2013,05,07,05,35,10.30
2013,05,07,05,36,10.30
2013,05,07,05,37,10.30
2013,05,07,05,38,10.30
2013,05,07,05,39,10.30
2013,05,07,05,40,10.30
2013,05,07,05,41,10.30
2013,05,07,05,42,10.30
2013,05,07,05,43,10.30
2013,05,07,05,44,10.30
2013,05,07,05,45,10.20
2013,05,07,05,46,10.20
2013,05,07,05,47,10.20
2013,05,07,05,48,10.20
2013,05,07,05,49,10.20
2013,05,07,05,50,10.20
2013,05,07,05,51,10.20
2013,05,07,05,52,10.20
2013,05,07,05,53,10.20
2013,05,07,05,54,10.20
2013,05,07,05,55,10.20
2013,05,07,05,56,10.20
2013,05,07,05,57,10.20
2013,05,07,05,58,10.10
2013,05,07,05,59,10.10
2013,05,07,06,00,10.10
2013,05,07,06,01,10.10
2013,05,07,06,02,10.10
2013,05,07,06,03,10.10
2013,05,07,06,04,10.10
2013,05,07,06,05,10.10
2013,05,07,06,06,10.10
2013,05,07,06,07,10.10
2013,05,07,06,08,10.10
2013,05,07,06,09,10.10
2013,05,07,06,10,10.10
2013,05,07,06,11,10.10
2013,05,07,06,12,10.10
2013,05,07,06,13,10.10
2013,05,07,06,14,10.10
2013,05,07,06,15,10.00
2013,05,07,06,16,10.00
2013,05,07,06,17,10.00
2013,05,07,06,18,10.00
2013,05,07,06,19,10.00
2013,05,07,06,20,9.90
2013,05,07,06,21,9.90
2013,05,07,06,22,9.90
2013,05,07,06,23,9.90
2013,05,07,06,24,9.90
2013,05,07,06,25,9.90
2013,05,07,06,26,9.90
2013,05,07,06,27,9.90
2013,05,07,06,28,9.90
2013,05,07,06,29,9.90
2013,05,07,06,30,9.90
2013,05,07,06,31,9.90
2013,05,07,06,32,9.90
2013,05,07,06,33,9.90
2013,05,07,06,34,9.90
2013,05,07,06,35,9.90
2013,05,07,06,36,9.90
2013,05,07,06,37,9.90
2013,05,07,06,38,9.90
2013,05,07,06,39,9.90
2013,05,07,06,40,9.90
2013,05,07,06,41,9.90
2013,05,07,06,42,9.90
2013,05,07,06,43,9.90
2013,05,07,06,44,9.90
2013,05,07,06,45,9.90
2013,05,07,06,46,10.00
2013,05,07,06,47,10.00
2013,05,07,06,48,10.00
2013,05,07,06,49,10.10
2013,05,07,06,50,10.10
2013,05,07,06,51,10.10
2013,05,07,06,52,10.10
2013,05,07,06,53,10.10
2013,05,07,06,54,10.10
2013,05,07,06,55,10.10
2013,05,07,06,56,10.20
2013,05,07,06,57,10.20
2013,05,07,06,58,10.20
2013,05,07,06,59,10.20
2013,05,07,07,00,10.20
2013,05,07,07,01,10.20
2013,05,07,07,02,10.30
2013,05,07,07,03,10.30
2013,05,07,07,04,10.30
2013,05,07,07,05,10.30
2013,05,07,07,06,10.30
2013,05,07,07,07,10.40
2013,05,07,07,08,10.40
2013,05,07,07,09,10.50
2013,05,07,07,10,10.50
2013,05,07,07,11,10.60
2013,05,07,07,12,10.60
2013,05,07,07,13,10.70
2013,05,07,07,14,10.70
2013,05,07,07,15,10.80
2013,05,07,07,16,10.80
2013,05,07,07,17,10.80
2013,05,07,07,18,10.90
2013,05,07,07,19,10.90
2013,05,07,07,20,10.90
2013,05,07,07,21,11.00
2013,05,07,07,22,11.00
2013,05,07,07,23,11.00
2013,05,07,07,24,11.10
2013,05,07,07,25,11.10
2013,05,07,07,26,11.10
2013,05,07,07,27,11.10
2013,05,07,07,28,11.10
2013,05,07,07,29,11.20
2013,05,07,07,30,11.20
2013,05,07,07,31,11.20
2013,05,07,07,32,11.20
2013,05,07,07,33,11.30
2013,05,07,07,34,11.30
2013,05,07,07,35,11.30
2013,05,07,07,36,11.30
2013,05,07,07,37,11.40
2013,05,07,07,38,11.40
2013,05,07,07,39,11.40
2013,05,07,07,40,11.50
2013,05,07,07,41,11.60
2013,05,07,07,42,11.60
2013,05,07,07,43,11.60
2013,05,07,07,44,11.70
2013,05,07,07,45,11.70
2013,05,07,07,46,11.70
2013,05,07,07,47,11.80
2013,05,07,07,48,11.80
2013,05,07,07,49,11.90
2013,05,07,07,50,11.90
2013,05,07,07,51,11.90
2013,05,07,07,52,12.00
2013,05,07,07,53,12.00
2013,05,07,07,54,12.10
2013,05,07,07,55,12.10
2013,05,07,07,56,12.10
2013,05,07,07,57,12.10
2013,05,07,07,58,12.20
2013,05,07,07,59,12.20
2013,05,07,08,00,12.20
2013,05,07,08,01,12.20
2013,05,07,08,02,12.30
2013,05,07,08,03,12.30
2013,05,07,08,04,12.30
2013,05,07,08,05,12.30
2013,05,07,08,06,12.30
2013,05,07,08,07,12.40
2013,05,07,08,08,12.40
2013,05,07,08,09,12.40
2013,05,07,08,10,12.40
2013,05,07,08,11,12.40
2013,05,07,08,12,12.40
2013,05,07,08,13,12.50
2013,05,07,08,14,12.50
2013,05,07,08,15,12.50
2013,05,07,08,16,12.50
2013,05,07,08,17,12.50
2013,05,07,08,18,12.50
2013,05,07,08,19,12.50
2013,05,07,08,20,12.50
2013,05,07,08,21,12.50
2013,05,07,08,22,12.40
2013,05,07,08,23,12.40
2013,05,07,08,24,12.40
2013,05,07,08,25,12.40
2013,05,07,08,26,12.40
2013,05,07,08,27,12.40
2013,05,07,08,28,12.40
2013,05,07,08,29,12.40
2013,05,07,08,30,12.40
2013,05,07,08,31,12.40
2013,05,07,08,32,12.40
2013,05,07,08,33,12.40
2013,05,07,08,34,12.40
2013,05,07,08,35,12.40
2013,05,07,08,36,12.40
2013,05,07,08,37,12.40
2013,05,07,08,38,12.40
2013,05,07,08,39,12.40
2013,05,07,08,40,12.40
2013,05,07,08,41,12.50
2013,05,07,08,42,12.50
2013,05,07,08,43,12.60
2013,05,07,08,44,12.60
2013,05,07,08,45,12.70
2013,05,07,08,46,12.70
2013,05,07,08,47,12.70
2013,05,07,08,48,12.80
2013,05,07,08,49,12.80
2013,05,07,08,50,12.90
2013,05,07,08,51,12.90
2013,05,07,08,52,13.00
2013,05,07,08,53,13.00
2013,05,07,08,54,13.10
2013,05,07,08,55,13.20
2013,05,07,08,56,13.20
2013,05,07,08,57,13.30
2013,05,07,08,58,13.40
2013,05,07,08,59,13.40
2013,05,07,09,00,13.50
2013,05,07,09,01,13.50
2013,05,07,09,02,13.60
2013,05,07,09,03,13.60
2013,05,07,09,04,13.70
2013,05,07,09,05,13.70
2013,05,07,09,06,13.80
2013,05,07,09,07,13.80
2013,05,07,09,08,13.90
2013,05,07,09,09,14.00
2013,05,07,09,10,14.00
2013,05,07,09,11,14.10
2013,05,07,09,12,14.10
2013,05,07,09,13,14.20
2013,05,07,09,14,14.20
2013,05,07,09,15,14.30
2013,05,07,09,16,14.30
2013,05,07,09,17,14.40
2013,05,07,09,18,14.40
2013,05,07,09,19,14.50
2013,05,07,09,20,14.50
2013,05,07,09,21,14.60
2013,05,07,09,22,14.70
2013,05,07,09,23,14.70
2013,05,07,09,24,14.80
2013,05,07,09,25,14.80
2013,05,07,09,26,14.90
2013,05,07,09,27,14.90
2013,05,07,09,28,15.00
2013,05,07,09,29,15.10
2013,05,07,09,30,15.10
2013,05,07,09,31,15.20
2013,05,07,09,32,15.20
2013,05,07,09,33,15.30
2013,05,07,09,34,15.40
2013,05,07,09,35,15.50
2013,05,07,09,36,15.60
2013,05,07,09,37,15.70
2013,05,07,09,38,15.70
2013,05,07,09,39,15.70
2013,05,07,09,40,15.70
2013,05,07,09,41,15.70
2013,05,07,09,42,15.60
2013,05,07,09,43,15.50
2013,05,07,09,44,15.40
2013,05,07,09,45,15.30
2013,05,07,09,46,15.20
2013,05,07,09,47,15.10
2013,05,07,09,48,15.00
2013,05,07,09,49,14.90
2013,05,07,09,50,14.90
2013,05,07,09,51,14.80
2013,05,07,09,52,14.70
2013,05,07,09,53,14.60
2013,05,07,09,54,14.50
2013,05,07,09,55,14.40
2013,05,07,09,56,14.40
2013,05,07,09,57,14.30
2013,05,07,09,58,14.30
2013,05,07,09,59,14.30
2013,05,07,10,00,14.30
2013,05,07,10,01,14.30
2013,05,07,10,02,14.30
2013,05,07,10,03,14.30
2013,05,07,10,04,14.20
2013,05,07,10,05,14.30
2013,05,07,10,06,14.30
2013,05,07,10,07,14.30
2013,05,07,10,08,14.30
2013,05,07,10,09,14.30
2013,05,07,10,10,14.30
2013,05,07,10,11,14.30
2013,05,07,10,12,14.20
2013,05,07,10,13,14.20
2013,05,07,10,14,14.10
2013,05,07,10,15,14.00
2013,05,07,10,16,13.90
2013,05,07,10,17,13.90
2013,05,07,10,18,13.80
2013,05,07,10,19,13.80
2013,05,07,10,20,13.80
2013,05,07,10,21,13.80
2013,05,07,10,22,13.80
2013,05,07,10,23,13.80
2013,05,07,10,24,13.80
2013,05,07,10,25,13.80
2013,05,07,10,26,13.80
2013,05,07,10,27,13.80
2013,05,07,10,28,13.80
2013,05,07,10,29,13.80
2013,05,07,10,30,13.80
2013,05,07,10,31,13.80
2013,05,07,10,32,13.80
2013,05,07,10,33,13.90
2013,05,07,10,34,13.90
2013,05,07,10,35,14.00
2013,05,07,10,36,14.10
2013,05,07,10,37,14.10
2013,05,07,10,38,14.10
2013,05,07,10,39,14.10
2013,05,07,10,40,14.10
2013,05,07,10,41,14.10
2013,05,07,10,42,14.10
2013,05,07,10,43,14.10
2013,05,07,10,44,14.10
2013,05,07,10,45,14.10
2013,05,07,10,46,14.20
2013,05,07,10,47,14.20
2013,05,07,10,48,14.30
2013,05,07,10,49,14.30
2013,05,07,10,50,14.40
2013,05,07,10,51,14.40
2013,05,07,10,52,14.50
2013,05,07,10,53,14.50
2013,05,07,10,54,14.50
2013,05,07,10,55,14.40
2013,05,07,10,56,14.40
2013,05,07,10,57,14.30
2013,05,07,10,58,14.30
2013,05,07,10,59,14.30
2013,05,07,11,00,14.30
2013,05,07,11,01,14.30
2013,05,07,11,02,14.20
2013,05,07,11,03,14.20
2013,05,07,11,04,14.20
2013,05,07,11,05,14.20
2013,05,07,11,06,14.20
2013,05,07,11,07,14.20
2013,05,07,11,08,14.20
2013,05,07,11,09,14.10
2013,05,07,11,10,14.10
2013,05,07,11,11,14.00
2013,05,07,11,12,14.00
2013,05,07,11,13,13.90
2013,05,07,11,14,13.80
2013,05,07,11,15,13.70
2013,05,07,11,16,13.70
2013,05,07,11,17,13.70
2013,05,07,11,18,13.70
2013,05,07,11,19,13.70
2013,05,07,11,20,13.70
2013,05,07,11,21,13.70
2013,05,07,11,22,13.70
2013,05,07,11,23,13.80
2013,05,07,11,24,13.80
2013,05,07,11,25,13.90
2013,05,07,11,26,13.90
2013,05,07,11,27,14.00
2013,05,07,11,28,14.10
2013,05,07,11,29,14.20
2013,05,07,11,30,14.30
2013,05,07,11,31,14.40
2013,05,07,11,32,14.40
2013,05,07,11,33,14.50
2013,05,07,11,34,14.60
2013,05,07,11,35,14.60
2013,05,07,11,36,14.60
2013,05,07,11,37,14.60
2013,05,07,11,38,14.60
2013,05,07,11,39,14.50
2013,05,07,11,40,14.50
2013,05,07,11,41,14.50
2013,05,07,11,42,14.50
2013,05,07,11,43,14.50
2013,05,07,11,44,14.50
2013,05,07,11,45,14.60
2013,05,07,11,46,14.60
2013,05,07,11,47,14.60
2013,05,07,11,48,14.50
2013,05,07,11,49,14.50
2013,05,07,11,50,14.50
2013,05,07,11,51,14.60
2013,05,07,11,52,14.60
2013,05,07,11,53,14.60
2013,05,07,11,54,14.60
2013,05,07,11,55,14.60
2013,05,07,11,56,14.60
2013,05,07,11,57,14.70
2013,05,07,11,58,14.60
2013,05,07,11,59,14.60
2013,05,07,12,00,14.50
2013,05,07,12,01,14.50
2013,05,07,12,02,14.40
2013,05,07,12,03,14.40
2013,05,07,12,04,14.30
2013,05,07,12,05,14.30
2013,05,07,12,06,14.30
2013,05,07,12,07,14.30
2013,05,07,12,08,14.30
2013,05,07,12,09,14.30
2013,05,07,12,10,14.30
2013,05,07,12,11,14.30
2013,05,07,12,12,14.30
2013,05,07,12,13,14.30
2013,05,07,12,14,14.30
2013,05,07,12,15,14.30
2013,05,07,12,16,14.30
2013,05,07,12,17,14.30
2013,05,07,12,18,14.40
2013,05,07,12,19,14.40
2013,05,07,12,20,14.40
2013,05,07,12,21,14.40
2013,05,07,12,22,14.40
2013,05,07,12,23,14.30
2013,05,07,12,24,14.30
2013,05,07,12,25,14.30
2013,05,07,12,26,14.30
2013,05,07,12,27,14.30
2013,05,07,12,28,14.30
2013,05,07,12,29,14.30
2013,05,07,12,30,14.30
2013,05,07,12,31,14.40
2013,05,07,12,32,14.40
2013,05,07,12,33,14.50
2013,05,07,12,34,14.60
2013,05,07,12,35,14.60
2013,05,07,12,36,14.50
2013,05,07,12,37,14.50
2013,05,07,12,38,14.40
2013,05,07,12,39,14.40
2013,05,07,12,40,14.40
2013,05,07,12,41,14.40
2013,05,07,12,42,14.40
2013,05,07,12,43,14.40
2013,05,07,12,44,14.40
2013,05,07,12,45,14.30
2013,05,07,12,46,14.30
2013,05,07,12,47,14.20
2013,05,07,12,48,14.20
2013,05,07,12,49,14.20
2013,05,07,12,50,14.20
2013,05,07,12,51,14.10
2013,05,07,12,52,14.10
2013,05,07,12,53,14.10
2013,05,07,12,54,14.20
2013,05,07,12,55,14.20
2013,05,07,12,56,14.20
2013,05,07,12,57,14.20
2013,05,07,12,58,14.20
2013,05,07,12,59,14.10
2013,05,07,13,00,14.10
2013,05,07,13,01,14.00
2013,05,07,13,02,13.90
2013,05,07,13,03,13.90
2013,05,07,13,04,14.00
2013,05,07,13,05,14.00
2013,05,07,13,06,14.10
2013,05,07,13,07,14.10
2013,05,07,13,08,14.20
2013,05,07,13,09,14.20
2013,05,07,13,10,14.30
2013,05,07,13,11,14.20
2013,05,07,13,12,14.20
2013,05,07,13,13,14.20
2013,05,07,13,14,14.20
2013,05,07,13,15,14.20
2013,05,07,13,16,14.20
2013,05,07,13,17,14.20
2013,05,07,13,18,14.20
2013,05,07,13,19,14.20
2013,05,07,13,20,14.20
2013,05,07,13,21,14.10
2013,05,07,13,22,14.10
2013,05,07,13,23,14.10
2013,05,07,13,24,14.00
2013,05,07,13,25,14.10
2013,05,07,13,26,14.10
2013,05,07,13,27,14.20
2013,05,07,13,28,14.20
2013,05,07,13,29,14.20
2013,05,07,13,30,14.20
2013,05,07,13,31,14.30
2013,05,07,13,32,14.20
2013,05,07,13,33,14.10
2013,05,07,13,34,14.10
2013,05,07,13,35,14.00
2013,05,07,13,36,14.00
2013,05,07,13,37,14.00
2013,05,07,13,38,14.10
2013,05,07,13,39,14.10
2013,05,07,13,40,14.20
2013,05,07,13,41,14.30
2013,05,07,13,42,14.30
2013,05,07,13,43,14.40
2013,05,07,13,44,14.40
2013,05,07,13,45,14.40
2013,05,07,13,46,14.40
2013,05,07,13,47,14.40
2013,05,07,13,48,14.30
2013,05,07,13,49,14.30
2013,05,07,13,50,14.20
2013,05,07,13,51,14.20
2013,05,07,13,52,14.20
2013,05,07,13,53,14.30
2013,05,07,13,54,14.30
2013,05,07,13,55,14.30
2013,05,07,13,56,14.40
2013,05,07,13,57,14.50
2013,05,07,13,58,14.50
2013,05,07,13,59,14.60
2013,05,07,14,00,14.70
2013,05,07,14,01,14.70
2013,05,07,14,02,14.80
2013,05,07,14,03,14.90
2013,05,07,14,04,14.90
2013,05,07,14,05,15.00
2013,05,07,14,06,15.10
2013,05,07,14,07,15.10
2013,05,07,14,08,15.10
2013,05,07,14,09,15.20
2013,05,07,14,10,15.20
2013,05,07,14,11,15.20
2013,05,07,14,12,15.20
2013,05,07,14,13,15.30
2013,05,07,14,14,15.30
2013,05,07,14,15,15.30
2013,05,07,14,16,15.40
2013,05,07,14,17,15.50
2013,05,07,14,18,15.50
2013,05,07,14,19,15.60
2013,05,07,14,20,15.60
2013,05,07,14,21,15.60
2013,05,07,14,22,15.60
2013,05,07,14,23,15.60
2013,05,07,14,24,15.60
2013,05,07,14,25,15.60
2013,05,07,14,26,15.70
2013,05,07,14,27,15.70
2013,05,07,14,28,15.70
2013,05,07,14,29,15.70
2013,05,07,14,30,15.70
2013,05,07,14,31,16.00
2013,05,07,14,32,16.00
2013,05,07,14,33,16.10
2013,05,07,14,34,16.20
2013,05,07,14,35,16.30
2013,05,07,14,36,16.30
2013,05,07,14,37,16.30
2013,05,07,14,38,16.30
2013,05,07,14,39,16.30
2013,05,07,14,40,16.30
2013,05,07,14,41,16.40
2013,05,07,14,42,16.30
2013,05,07,14,43,16.30
2013,05,07,14,44,16.30
2013,05,07,14,45,16.30
2013,05,07,14,46,16.30
2013,05,07,14,47,16.30
2013,05,07,14,48,16.30
2013,05,07,14,49,16.30
2013,05,07,14,50,16.30
2013,05,07,14,51,16.30
2013,05,07,14,52,16.30
2013,05,07,14,53,16.40
2013,05,07,14,54,16.40
2013,05,07,14,55,16.40
2013,05,07,14,56,16.40
2013,05,07,14,57,16.40
2013,05,07,14,58,16.40
2013,05,07,14,59,16.50
2013,05,07,15,00,16.50
2013,05,07,15,01,16.60
2013,05,07,15,02,16.50
2013,05,07,15,03,16.60
2013,05,07,15,04,16.60
2013,05,07,15,05,16.70
2013,05,07,15,06,16.70
2013,05,07,15,07,16.70
2013,05,07,15,08,16.70
2013,05,07,15,09,16.70
2013,05,07,15,10,16.70
2013,05,07,15,11,16.70
2013,05,07,15,12,16.60
2013,05,07,15,13,16.60
2013,05,07,15,14,16.50
2013,05,07,15,15,16.50
2013,05,07,15,16,16.40
2013,05,07,15,17,16.30
2013,05,07,15,18,16.20
2013,05,07,15,19,16.10
2013,05,07,15,20,16.10
2013,05,07,15,21,16.10
2013,05,07,15,22,16.10
2013,05,07,15,23,16.10
2013,05,07,15,24,16.20
2013,05,07,15,25,16.30
2013,05,07,15,26,16.40
2013,05,07,15,27,16.50
2013,05,07,15,28,16.60
2013,05,07,15,29,16.60
2013,05,07,15,30,16.70
2013,05,07,15,31,16.70
2013,05,07,15,32,16.80
2013,05,07,15,33,16.80
2013,05,07,15,34,16.90
2013,05,07,15,35,17.00
2013,05,07,15,36,17.10
2013,05,07,15,37,17.20
2013,05,07,15,38,17.20
2013,05,07,15,39,17.10
2013,05,07,15,40,17.00
2013,05,07,15,41,17.00
2013,05,07,15,42,16.90
2013,05,07,15,43,16.90
2013,05,07,15,44,17.00
2013,05,07,15,45,17.00
2013,05,07,15,46,17.10
2013,05,07,15,47,17.20
2013,05,07,15,48,17.30
2013,05,07,15,49,17.40
2013,05,07,15,50,17.50
2013,05,07,15,51,17.50
2013,05,07,15,52,17.60
2013,05,07,15,53,17.60
2013,05,07,15,54,17.60
2013,05,07,15,55,17.40
2013,05,07,15,56,17.30
2013,05,07,15,57,17.30
2013,05,07,15,58,17.20
2013,05,07,15,59,17.20
2013,05,07,16,00,17.10
2013,05,07,16,01,17.00
2013,05,07,16,02,17.00
2013,05,07,16,03,16.90
2013,05,07,16,04,16.90
2013,05,07,16,05,16.90
2013,05,07,16,06,17.00
2013,05,07,16,07,17.00
2013,05,07,16,08,16.90
2013,05,07,16,09,17.00
2013,05,07,16,10,17.00
2013,05,07,16,11,17.10
2013,05,07,16,12,17.10
2013,05,07,16,13,17.20
2013,05,07,16,14,17.20
2013,05,07,16,15,17.20
2013,05,07,16,16,17.20
2013,05,07,16,17,17.20
2013,05,07,16,18,17.10
2013,05,07,16,19,17.20
2013,05,07,16,20,17.20
2013,05,07,16,21,17.20
2013,05,07,16,22,17.30
2013,05,07,16,23,17.30
2013,05,07,16,24,17.40
2013,05,07,16,25,17.40
2013,05,07,16,26,17.40
2013,05,07,16,27,17.40
2013,05,07,16,28,17.50
2013,05,07,16,29,17.50
2013,05,07,16,30,17.50
2013,05,07,16,31,17.60
2013,05,07,16,32,17.60
2013,05,07,16,33,17.60
2013,05,07,16,34,17.70
2013,05,07,16,35,17.60
2013,05,07,16,36,17.70
2013,05,07,16,37,17.70
2013,05,07,16,38,17.80
2013,05,07,16,39,17.90
2013,05,07,16,40,18.00
2013,05,07,16,41,18.10
2013,05,07,16,42,18.10
2013,05,07,16,43,18.10
2013,05,07,16,44,18.10
2013,05,07,16,45,18.00
2013,05,07,16,46,17.90
2013,05,07,16,47,17.80
2013,05,07,16,48,17.80
2013,05,07,16,49,17.70
2013,05,07,16,50,17.70
2013,05,07,16,51,17.80
2013,05,07,16,52,17.80
2013,05,07,16,53,17.80
2013,05,07,16,54,17.90
2013,05,07,16,55,18.00
2013,05,07,16,56,18.10
2013,05,07,16,57,18.10
2013,05,07,16,58,18.20
2013,05,07,16,59,18.30
2013,05,07,17,00,18.30
2013,05,07,17,01,18.40
2013,05,07,17,02,18.40
2013,05,07,17,03,18.50
2013,05,07,17,04,18.60
2013,05,07,17,05,18.70
2013,05,07,17,06,18.80
2013,05,07,17,07,18.80
2013,05,07,17,08,19.00
2013,05,07,17,09,19.00
2013,05,07,17,10,19.00
2013,05,07,17,11,19.00
2013,05,07,17,12,18.90
2013,05,07,17,13,18.90
2013,05,07,17,14,18.80
2013,05,07,17,15,18.70
2013,05,07,17,16,18.60
2013,05,07,17,17,18.50
2013,05,07,17,18,18.40
2013,05,07,17,19,18.40
2013,05,07,17,20,18.40